Miscellaneous Local Product
Issued by NWS Hastings, NE

Home | Current Version | Previous Version | Graphics & Text | Print | Product List | Glossary On
Versions: 1 2 3 4 5 6 7 8 9 10 11 12 13 14 15 16 17 18 19 20 21 22 23 24 25 26 27 28 29 30 31 32 33 34 35 36 37 38 39 40 41 42 43 44 45 46 47 48 49 50
000
AXUS43 KGID 280102
MISGRI

GID CWA HOURLY WEATHER ROUNDUP
NATIONAL WEATHER SERVICE HASTINGS NE
800 PM CDT MON JUL 27 2015

NOTE: "FAIR" INDICATES FEW OR NO CLOUDS BELOW 12,000 FEET WITH NO
SIGNIFICANT WEATHER AND/OR OBSTRUCTIONS TO VISIBILITY.

...SOUTH CENTRAL NEBRASKA...

CITY           SKY/WX    TMP DP  RH WIND       PRES   REMARKS
GRAND ISLAND   CLEAR     84  74  71 SE14      29.79F HX  91
HASTINGS       CLEAR     86  75  69 SE13      29.79S HX  95
KEARNEY        CLOUDY    86  73  66 SE12      29.78R HX  93
ORD            CLEAR     86  72  62 SE18G26   29.75S HX  92
YORK           CLEAR     84  75  74 SE9       29.80F HX  92
AURORA         CLEAR     84  75  75 SE12      29.79F HX  92
LEXINGTON      PTCLDY    89  73  59 SE12      29.75F HX  97
HOLDREGE       CLOUDY    87  70  57 SE10      29.78S HX  91
HEBRON         CLEAR     88  74  63 SE8       29.80S HX  97

...NEBRASKA PANHANDLE...

CITY           SKY/WX    TMP DP  RH WIND       PRES   REMARKS
CHADRON        MOSUNNY   73  57  57 NW23G44   29.71R
ALLIANCE       MOSUNNY   85  66  53 S8        29.72R
SCOTTSBLUFF    PTSUNNY   76  58  53 NE13      29.72S THUNDER
SIDNEY         MOSUNNY   93  56  28 S18G24    29.75S HX  91

...WESTERN AND NORTH CENTRAL NEBRASKA...

CITY           SKY/WX    TMP DP  RH WIND       PRES   REMARKS
VALENTINE      MOSUNNY   90  69  50 S23       29.67F HX  94
AINSWORTH      SUNNY     87  70  57 S22G28    29.71F HX  92
ONEILL         PTCLDY    86  72  63 S18G25    29.76S HX  92
BROKEN BOW     CLEAR     88  71  57 S16G26    29.75F HX  94
IMPERIAL       SUNNY     92  66  42 S18G29    29.72F HX  94
NORTH PLATTE   PTSUNNY   88  71  57 SE13G22   29.71F HX  94
MCCOOK         SUNNY     92  69  47 S16G24    29.72F HX  97

...EASTERN NEBRASKA...

CITY           SKY/WX    TMP DP  RH WIND       PRES   REMARKS
NORFOLK        CLEAR     85  72  65 SE14      29.78S HX  91
SO SIOUX CITY  CLEAR     82  73  74 SE16G25   29.81S
TEKAMAH        PTCLDY    81  73  76 SE18G24   29.83R
COLUMBUS       CLEAR     84  73  70 S7        29.79S HX  91
ALBION         CLEAR     85  70  61 S10       29.78F
OMAHA EPPLEY   MOCLDY    80  70  71 SE17      29.84F
OFFUTT AFB     PTCLDY    78  71  78 E14       29.84S
MILLARD        PTCLDY    84  77  79 SE12G18   29.83F HX  94
LINCOLN        CLEAR     88  76  67 SE15      29.81S HX  99
NEBRASKA CITY  PTCLDY    85  76  72 SE7       29.84F HX  95
BEATRICE       CLEAR     88  79  74 SE7       29.81F HX 102
FALLS CITY     PTCLDY    85  79  82 E9        29.83S HX  98

...NORTHERN KANSAS...

CITY           SKY/WX    TMP DP  RH WIND       PRES   REMARKS
GOODLAND       MOSUNNY   89  67  47 SE13      29.77F HX  92
HILL CITY      CLEAR     91  69  48 S13G21    29.76S HX  96
NORTON         CLEAR     88  63  42 SE13G20   29.75S
PHILLIPSBURG   CLEAR     91  68  46 SE12G18   29.76S HX  95
SMITH CENTER   CLEAR     88  68  51 SE14      29.78S HX  91
HAYS           CLEAR     91  66  43 S17G23    29.78S HX  94
RUSSELL        CLEAR     90  65  43 S14       29.78S HX  92
CONCORDIA      CLEAR     87  69  54 S8        29.81R HX  91
SALINA         CLEAR     92  64  39 S13       29.80S HX  93
TOPEKA         CLEAR     89  72  56 SE8       29.84R HX  96



USA.gov is the U.S. government's official web portal to all federal, state and local government web resources and services.